Lid_Strength_Index
6 9 11 9 8 8 9 11 11 10 8 9 9 9 8 7 7 7 6 5 5 5 4 3 4 3 2 1 1 1 1 0 0 1 3 3 5 4 4 3 2 1 1 1
9 11 8 7 8 9 9 10 10 9 8 8 9 9 7 7 7 7 7 6 5 5 4 4 4 4 3 2 2 1 1 1 2 2 3 4 4 5 4 3 2 2 1 1
10 9 7 8 9 10 10 11 11 10 9 8 9 10 9 7 7 7 7 6 5 5 5 4 5 3 4 4 4 3 4 6 7 6 6 6 6 5 4 4 4 3 2 1
9 7 9 9 10 9 12 9 9 10 11 13 9 15 10 8 8 8 7 6 5 5 5 4 4 3 4 6 7 8 8 8 8 6 6 6 6 6 5 4 4 3 2 2
11 9 10 11 10 8 10 8 9 10 11 12 12 14 11 9 9 8 7 7 5 5 5 4 5 4 4 7 9 8 9 9 8 7 6 6 5 5 5 4 4 3 3 3
10 7 7 9 8 8 7 9 10 11 12 17 12 13 12 10 9 8 7 7 6 5 5 4 5 5 7 8 9 9 9 9 8 7 5 5 5 5 5 4 5 5 4 3
10 10 8 7 9 8 9 11 16 17 18 17 11 14 12 9 8 7 7 7 6 5 5 5 6 7 8 9 8 9 9 9 8 6 6 5 5 5 4 5 6 6 5 4
15 15 10 8 9 11 11 11 17 17 17 15 12 15 11 7 7 6 6 6 6 6 6 6 6 6 7 8 8 8 9 9 7 7 6 5 5 5 5 6 6 6 5 5
15 15 9 8 7 8 11 13 9 14 13 16 13 12 10 9 9 8 8 8 7 6 7 6 6 7 7 8 8 8 8 7 7 7 6 6 6 6 7 7 7 7 7 8
11 15 10 10 8 8 9 8 15 13 19 18 14 13 13 11 9 9 9 8 7 6 7 7 7 8 8 8 8 7 7 8 8 7 7 8 8 8 8 8 8 8 8 8
10 12 12 10 11 12 11 12 11 12 14 16 16 14 9 9 8 8 8 8 8 7 7 7 8 8 8 9 9 8 8 9 9 9 9 9 9 9 8 8 9 9 9 9
10 12 14 13 10 8 9 11 11 15 16 15 15 14 9 8 8 8 8 9 8 7 7 7 8 9 10 9 10 10 9 10 9 9 9 9 9 9 9 9 10 9 10 9
11 13 16 15 12 10 11 10 10 10 13 15 17 14 11 10 10 10 10 9 9 8 8 8 10 10 10 10 11 11 10 10 10 9 9 9 9 10 10 10 10 10 10 9
8 12 14 17 15 11 13 11 10 12 15 14 14 12 12 11 10 11 11 10 9 9 9 10 10 10 11 11 12 11 11 10 10 10 10 10 10 10 11 11 10 10 10 10
9 13 13 13 12 11 11 11 11 12 12 15 13 12 10 9 10 10 10 11 11 11 10 10 10 11 12 12 12 11 11 10 10 11 11 11 11 11 11 11 11 11 10 10
9 13 12 14 12 12 13 11 11 11 11 11 11 11 8 8 9 11 12 12 11 11 11 10 11 12 12 12 12 11 11 11 11 11 11 12 12 11 11 11 11 11 11 10
10 12 15 17 12 13 16 13 12 11 10 10 13 10 8 10 10 10 11 12 11 11 11 11 12 12 12 12 11 12 12 11 11 12 12 12 12 12 11 11 11 11 11 11
11 12 13 16 15 21 13 9 10 11 10 9 9 9 8 8 8 8 10 11 11 11 11 11 12 12 12 11 11 12 11 12 12 12 12 12 12 12 12 11 11 11 10 11
10 11 16 18 18 14 12 12 11 12 12 9 10 9 8 8 10 11 10 10 10 11 11 12 12 12 12 12 12 12 12 12 12 13 13 13 12 12 12 12 12 11 12 12
10 11 14 16 19 21 14 11 10 9 15 9 9 9 9 11 12 10 12 11 11 11 12 13 12 12 12 12 12 13 13 13 13 13 13 12 12 13 13 13 13 13 13 12
15 15 17 17 18 15 11 12 8 16 14 11 9 8 8 11 9 8 11 12 12 13 13 12 12 13 13 12 12 13 13 14 13 13 12 12 12 13 13 13 13 13 12 12
15 16 17 16 18 19 12 12 12 10 12 13 10 11 11 11 13 12 12 14 13 14 13 13 13 13 13 13 13 14 14 13 13 13 13 13 13 13 13 13 12 12 12 12
16 13 15 14 14 11 11 11 12 12 13 12 11 12 14 15 14 14 14 14 14 14 14 13 14 14 14 13 13 14 14 13 13 14 14 14 14 13 13 12 12 12 12 12
12 11 14 13 11 11 12 13 13 13 13 13 12 13 13 14 15 15 15 15 14 14 14 14 14 15 15 14 14 13 13 14 14 15 15 15 15 14 13 13 12 12 12 11
11 11 13 13 12 13 12 12 11 12 12 13 13 13 14 14 15 15 15 15 15 15 14 14 14 15 15 14 14 14 14 14 15 15 15 14 14 15 14 14 13 12 11 10
10 12 12 13 11 10 9 9 11 12 12 12 14 15 14 14 15 14 15 14 15 15 14 15 15 15 15 15 14 14 14 14 15 15 15 14 14 15 15 14 12 13 11 9